| time (UTC) | temp F | wind direction | speed MPH | gust MPH | rain 1hr in | rain 24hr in | rain mn in | humidity % | barometer mb |
| 20260504050021 | 59 | 248 | 0.0 | 4.0 | 0.00 | 0.00 | 0.00 | 100 | 1007.8 |
| 20260504044520 | 59 | 245 | 0.0 | 4.0 | 0.00 | 0.00 | 0.00 | 100 | 1007.7 |
| 20260504043017 | 60 | 360 | 0.0 | 5.0 | 0.00 | 0.00 | 0.00 | 15 | 1007.7 |
| 20260504041506 | 61 | 226 | 2.0 | 7.0 | 0.00 | 0.00 | 0.00 | 30 | 1007.6 |
| 20260504040003 | 62 | 227 | 2.0 | 7.0 | 0.00 | 0.00 | 0.00 | 35 | 1007.5 |
| 20260504034558 | 62 | 207 | 2.0 | 7.0 | 0.00 | 0.00 | 0.00 | 37 | 1007.5 |
| 20260504033059 | 62 | 236 | 1.0 | 7.0 | 0.00 | 0.00 | 0.00 | 38 | 1007.7 |
| 20260504031552 | 62 | 231 | 0.0 | 5.0 | 0.00 | 0.00 | 0.00 | 39 | 1007.9 |
| 20260504030045 | 62 | 214 | 1.0 | 6.0 | 0.00 | 0.00 | 0.00 | 39 | 1008.0 |
| 20260504024545 | 62 | 233 | 1.0 | 5.0 | 0.00 | 0.00 | 0.00 | 39 | 1008.0 |
| 20260504023038 | 62 | 233 | 0.0 | 3.0 | 0.00 | 0.00 | 0.00 | 39 | 1008.0 |
| 20260504021531 | 63 | 223 | 0.0 | 3.0 | 0.00 | 0.00 | 0.00 | 40 | 1007.9 |
| 20260504020027 | 63 | 232 | 0.0 | 4.0 | 0.00 | 0.00 | 0.00 | 42 | 1007.9 |
| 20260504014533 | 63 | 243 | 0.0 | 3.0 | 0.00 | 0.00 | 0.00 | 44 | 1007.8 |
| 20260504013031 | 64 | 225 | 0.0 | 9.0 | 0.00 | 0.00 | 0.00 | 45 | 1007.7 |
| 20260504011515 | 65 | 242 | 0.0 | 8.0 | 0.00 | 0.00 | 0.00 | 47 | 1007.7 |
| 20260504010010 | 66 | 243 | 0.0 | 8.0 | 0.00 | 0.00 | 0.00 | 47 | 1007.6 |
| 20260504004506 | 67 | 239 | 0.0 | 8.0 | 0.00 | 0.00 | 0.00 | 47 | 1007.7 |
| 20260504003005 | 68 | 223 | 0.0 | 10.0 | 0.00 | 0.00 | 0.00 | 45 | 1007.6 |
| 20260504001622 | 69 | 254 | 3.0 | 14.0 | 0.00 | 0.00 | 0.00 | 44 | 1007.6 |
| 20260503234549 | 70 | 224 | 5.0 | 16.0 | 0.00 | 0.00 | 0.00 | 43 | 1007.3 |
| 20260503233045 | 70 | 246 | 6.0 | 15.0 | 0.00 | 0.00 | 0.00 | 42 | 1007.5 |
| 20260503231540 | 71 | 360 | 7.0 | 15.0 | 0.00 | 0.00 | 0.00 | 42 | 1007.5 |
| 20260503230040 | 71 | 360 | 7.0 | 15.0 | 0.00 | 0.00 | 0.00 | 41 | 1007.6 |
| 20260503224531 | 71 | 244 | 10.0 | 19.0 | 0.00 | 0.00 | 0.00 | 41 | 1007.7 |
| 20260503223027 | 71 | 360 | 8.0 | 21.0 | 0.00 | 0.00 | 0.00 | 41 | 1007.8 |
| 20260503221522 | 71 | 360 | 11.0 | 21.0 | 0.00 | 0.00 | 0.00 | 40 | 1008.0 |
| 20260503220018 | 71 | 216 | 5.0 | 20.0 | 0.00 | 0.00 | 0.00 | 39 | 1008.0 |
| 20260503214513 | 71 | 216 | 8.0 | 20.0 | 0.00 | 0.00 | 0.00 | 39 | 1008.4 |
| 20260503213009 | 71 | 236 | 5.0 | 18.0 | 0.00 | 0.00 | 0.00 | 39 | 1008.6 |
| 20260503211504 | 70 | 255 | 7.0 | 14.0 | 0.00 | 0.00 | 0.00 | 39 | 1008.9 |
| 20260503210101 | 70 | 223 | 6.0 | 19.0 | 0.00 | 0.00 | 0.00 | 40 | 1009.0 |
| 20260503204557 | 69 | 223 | 7.0 | 20.0 | 0.00 | 0.00 | 0.00 | 41 | 1009.5 |
| 20260503203105 | 67 | 234 | 10.0 | 22.0 | 0.00 | 0.00 | 0.00 | 41 | 1009.8 |
| 20260503201548 | 67 | 234 | 10.0 | 24.0 | 0.00 | 0.00 | 0.00 | 40 | 1010.2 |
| 20260503200043 | 67 | 360 | 10.0 | 22.0 | 0.00 | 0.00 | 0.00 | 40 | 1010.3 |
| 20260503194543 | 67 | 217 | 11.0 | 24.0 | 0.00 | 0.00 | 0.00 | 38 | 1010.5 |
| 20260503193038 | 68 | 212 | 10.0 | 18.0 | 0.00 | 0.00 | 0.00 | 38 | 1010.7 |
| 20260503191531 | 66 | 360 | 10.0 | 24.0 | 0.00 | 0.00 | 0.00 | 39 | 1011.0 |
| 20260503190035 | 65 | 234 | 5.0 | 16.0 | 0.00 | 0.00 | 0.00 | 35 | 1011.0 |
| 20260503184524 | 63 | 228 | 7.0 | 17.0 | 0.00 | 0.00 | 0.00 | 31 | 1011.2 |
| 20260503183017 | 60 | 171 | 7.0 | 22.0 | 0.00 | 0.00 | 0.00 | 21 | 1011.6 |
| 20260503181514 | 60 | 185 | 4.0 | 18.0 | 0.00 | 0.00 | 0.00 | 1 | 1012.0 |
| 20260503180008 | 57 | 184 | 4.0 | 13.0 | 0.00 | 0.00 | 0.00 | 100 | 1012.4 |
| 20260503174503 | 54 | 160 | 3.0 | 10.0 | 0.00 | 0.00 | 0.00 | 100 | 1012.8 |
| 20260503173105 | 52 | 197 | 2.0 | 9.0 | 0.00 | 0.00 | 0.00 | 100 | 1013.0 |
| 20260503171556 | 51 | 195 | 1.0 | 5.0 | 0.00 | 0.00 | 0.00 | 100 | 1013.7 |
| 20260503081534 | 47 | 222 | 1.0 | 6.0 | 0.00 | 0.00 | 0.00 | 42 | 1017.2 |
| 20260503071518 | 47 | 234 | 0.0 | 6.0 | 0.00 | 0.00 | 0.00 | 46 | 1017.3 |
| 20260503054502 | 47 | 239 | 0.0 | 5.0 | 0.00 | 0.00 | 0.00 | 48 | 1018.0 |